Location: Newark
(48.9233°N, 29.3439°E)
Time: 21:42:06
(UTC+00:00)

Envisat - Pass Details

Date: 25 September 2019
Orbit: 764 x 766 km, 98.1° (Epoch: 18 October)

Event Time Altitude Azimuth Distance (km) Brightness Sun altitude
Rises 16:17:39 0° 173° (S) 3,220 6.1 -4.5°
Reaches altitude 10° 16:19:58 10° 176° (S) 2,298 5.4 -4.9°
Maximum altitude 16:25:00 64° 258° (WSW) 848 3.6 -5.7°
Drops below altitude 10° 16:30:04 10° 341° (NNW) 2,315 5.9 -6.6°
Sets 16:32:25 0° 344° (NNW) 3,245 6.6 -6.9°
